Starke, FL

6:40 AM EDT on August 29, 2015 (GMT -0400)
Keystone Airpark, Keystone He | | Change Station
CLOSE
Current Station
Airport
Location: Keystone Airpark, Keystone He,
Elevation: 197 ft
Nearby Weather Stations

Elev 197 ft 29.84 °N, 82.05 °W | Updated 5 minutes ago

Clear
Clear
72 °F
Feels Like 72 °F
N
0
Wind Variable Wind from North

Today
High -- | Low -- °F
--% Chance of Precip.
Yesterday
High -- | Low -- °F
Precip. -- in
7:03 AM 7:54 PM
Full, 100% visible
Pressure 30.08 in
Visibility 6.0 miles
Clouds Clear
Dew Point 72 °F
Humidity 100%
Rainfall 0.00 in
Snow Depth Not available.
UV 0 out of 12
Pollen 6.10 out of 12
Air Quality Not available.
Flu Activity Not available.
METAR K42J 291035Z AUTO 00000KT 6SM CLR 22/22 A3008 RMK AO1 TSNO
Pressure 30.08 in
Visibility 6.0 miles
Clouds Clear
Dew Point 72 °F
Humidity 100%
Rainfall 0.00 in
Snow Depth Not available.
UV 0 out of 12
Pollen 6.10 out of 12
Air Quality Not available.
Flu Activity Not available.
METAR K42J 291035Z AUTO 00000KT 6SM CLR 22/22 A3008 RMK AO1 TSNO
Erika has become very unorganized in the face of strong wind shear in the eastern Caribbean Sea. The storm will pass directly over mountainous Hispaniola today, likely weakening it further. If the storm remains intact, it could reach an area favorable for strengthening before moving onto Florida by early next week. Follow the live blog

10-Day Weather Forecast

×

Almanac

Astronomy

Aug. 29, 2015 Rise Set
Actual Time
Civil Twilight
Nautical Twilight
Astronomical Twilight
Moon
Length of Visible Light
Length of Day
Tomorrow will be .
, % of the Moon is Illuminated

Today's Extremes

State Highs State Lows

Community

WunderPhotos

Upload Photos

1,850,633 photos uploaded!

WunderBlogs® & News

Nearby

Air Quality

  Air Quality AQ Index Pollutant
Not available.

Snow Depth

Station Depth Elevation

Earthquake Activity

City Distance Mag. Time & Date
Minimum magnitude displayed is 2.5.

Coastal Water Temperatures

Place Temperature

Stations

Nearby Weather Stations

Station Location Temp. Windchill Dew Point Humidity Wind Precip. Elev Updated Type